Location: Oshawa
(43.9000°N, 78.8670°W)
Time: 13:06:21
(UTC-04:00)

Cosmos 1821 Rocket - Visible Passes

Search period start: 04 May 2015 00:00
Search period end: 14 May 2015 00:00
Orbit: 946 x 1004 km, 82.9° (Epoch: 03 May)

Date Brightness Start Highest point End Pass type
(mag) Time Alt. Az. Time Alt. Az. Time Alt. Az.
04 May 6.3 02:26:55 10° ESE 02:29:53 14° E 02:33:13 10° NE visible
04 May 3.9 04:10:04 20° S 04:14:29 87° W 04:20:48 10° N visible
05 May 5.7 02:50:52 14° SE 02:54:52 26° E 02:59:59 10° NNE visible
05 May 4.3 04:35:32 18° SW 04:39:57 50° WNW 04:46:02 10° N visible
06 May 4.8 03:16:18 22° SSE 03:19:58 46° E 03:25:57 10° NNE visible
06 May 5.0 05:00:59 13° SW 05:05:38 29° WNW 05:10:59 10° NNW visible
07 May 6.4 01:58:40 10° E 02:00:44 12° E 02:03:14 10° NE visible
07 May 4.0 03:41:43 28° S 03:45:12 82° E 03:51:32 10° N visible
07 May 5.6 05:27:32 10° WSW 05:31:34 17° WNW 05:35:23 10° NNW visible
08 May 5.8 02:22:26 15° ESE 02:25:40 23° E 02:30:29 10° NE visible
08 May 4.1 04:07:06 26° SSW 04:10:37 58° WNW 04:16:51 10° N visible
09 May 5.0 02:47:48 25° SE 02:50:44 40° E 02:56:35 10° NNE visible
09 May 4.8 04:32:29 18° SW 04:36:15 33° WNW 04:41:52 10° N visible
10 May 6.5 01:31:33 10° ENE 01:31:36 10° ENE 01:32:08 10° ENE visible
10 May 4.1 03:13:09 34° SSE 03:15:56 71° E 03:22:15 10° NNE visible
10 May 5.5 04:57:49 11° WSW 05:02:07 20° WNW 05:06:28 10° NNW visible
11 May 5.9 01:53:49 15° ESE 01:56:30 20° E 02:00:54 10° NE visible
11 May 4.0 03:38:29 34° SSW 03:41:19 68° W 03:47:38 10° N visible
12 May 5.2 02:19:09 26° SE 02:21:32 34° E 02:27:11 10° NNE visible
12 May 4.7 04:03:49 24° SW 04:06:53 39° WNW 04:12:44 10° N visible
13 May 4.3 02:44:27 39° SSE 02:46:42 61° E 02:52:57 10° NNE visible
13 May 5.4 04:29:06 15° WSW 04:32:41 23° WNW 04:37:29 10° NNW visible
